Location: Madrid
(40.4000°N, 3.6830°W)
Time: 15:39:54

ISS - Pass Details

Date: 23 March 2018
Orbit: 403 x 406 km, 51.6° (Epoch: 17 March)

Event Time Altitude Azimuth Distance (km) Brightness Sun altitude
Rises 20:31:06 0° 202° (SSW) 2,308 0.1 -12.4°
Reaches altitude 10° 20:33:26 10° 187° (S) 1,453 -1.1 -12.8°
Maximum altitude 20:36:03 22° 133° (SE) 929 -2.5 -13.3°
Enters shadow 20:36:08 22° 131° (SE) 929 -2.5 -13.3°
